Vertical_Velocity
-1 -1 -2 -2 -2 -3 -3 -2 -2 -2 -1 -1 0 0 -1 -1 -1 -4 -2 5 1 0 -1 3 1 2 2 0 0 6 0 -4 -4 2 1 -6 -1 5 -1 4 2 3 2 -7 -2
-1 -1 -2 -1 -1 -1 -1 -2 -2 -1 0 1 1 -0 -1 0 -6 -14 16 -2 -2 -1 -1 3 3 5 -1 3 -2 -0 -3 -3 5 12 4 -1 2 -0 -0 -1 -0 0 -6 3 0
-2 -2 -1 -0 -1 -0 -1 -0 -0 -1 -1 -1 0 1 0 1 -6 -5 8 1 1 -1 1 3 -1 1 2 8 -3 -2 -21 5 3 3 -2 -0 1 -3 3 -5 -0 4 2 2 -2
0 0 -1 -1 -1 -2 -2 -1 -0 -0 0 -0 -1 -2 0 -1 -11 -0 3 1 0 -0 2 2 -1 -2 1 -11 5 -3 -3 2 4 -5 0 2 1 -2 2 10 -1 -0 1 -1 -2
-1 -2 -1 -0 0 0 1 0 -0 -1 -2 -1 1 0 1 -5 -9 -1 3 1 0 3 5 4 -3 8 -7 -3 9 -7 2 4 -2 2 2 -3 1 4 -4 -0 7 -0 -0 -1 -0
2 2 1 0 0 0 0 -0 -0 1 0 1 -1 -0 2 -14 -9 9 3 0 1 2 -0 1 -4 13 13 -1 -1 -2 8 3 4 -0 1 -2 3 -1 7 5 -2 -0 2 -0 -1
-1 -0 -1 -3 -2 -1 -1 1 -1 1 -0 0 0 0 -6 16 6 5 5 1 2 3 3 7 6 5 -2 14 8 1 1 2 1 5 -2 4 -4 -28 16 -2 2 -2 2 -1 -1
1 1 -0 -1 -3 -2 -1 -2 -3 -2 0 0 0 -2 -16 5 6 2 2 3 4 2 4 10 6 3 13 10 5 0 5 6 -2 -2 -1 8 -15 2 6 1 2 2 1 0 1
-3 -4 -2 -2 1 1 -1 0 1 2 1 3 -1 4 -1 -2 -5 3 2 4 9 7 5 -1 7 7 14 6 8 5 -4 -1 -1 2 5 -1 1 19 -11 1 3 2 3 2 -1
3 2 0 -1 -1 1 3 -1 2 2 0 6 2 3 13 -4 0 1 5 6 6 12 8 1 5 -1 3 6 -28 -8 -2 -9 -5 -8 -4 -6 2 -6 -5 3 4 1 4 4 3
-5 -2 -3 -4 -3 -6 -2 5 0 -10 7 9 -2 1 3 0 7 3 6 5 9 4 0 2 2 -45 -11 -13 -1 15 8 -6 7 4 1 6 5 8 -5 0 2 5 -1 -8 -0
-2 -3 -5 -4 -4 -2 -2 -0 -0 2 4 5 6 11 6 -2 2 10 6 6 5 -0 11 18 -38 9 25 11 3 1 7 -3 -1 34 -1 7 -4 -3 7 7 -8 -3 1 2 2
-6 -4 -2 -2 -0 -2 -1 -0 -1 -3 -4 0 2 2 -1 -1 1 2 -0 5 4 7 4 -3 -53 43 1 4 13 0 -7 3 9 -11 -6 2 -0 7 5 4 -4 -3 -3 -1 -1
-6 -2 -3 -1 -1 -1 -4 -2 0 -3 -0 7 -1 3 -2 -1 2 10 4 1 0 -10 3 9 8 11 6 2 10 10 7 -3 4 20 -8 -10 -16 6 9 3 1 -2 -2 -2 -1
-5 -3 -2 -3 -0 -1 -2 -1 0 -1 6 -2 -3 1 1 -4 -2 13 -2 7 0 -5 23 -59 14 -8 21 -26 12 -39 7 -0 -4 8 8 12 11 -2 10 6 -3 -5 -3 -2 -3
-4 -3 -5 0 -1 -5 -2 -2 1 11 9 1 7 -6 -4 -3 3 -1 -4 -1 6 -0 2 -7 27 15 -26 -7 18 9 5 2 19 22 17 -22 2 3 -0 19 3 1 -2 -3 -3
-4 -5 -8 -7 -15 -5 -7 -3 31 -8 2 -7 -2 -3 -3 -5 4 -5 -0 -5 -6 -2 4 10 -4 8 6 29 8 8 2 6 16 17 -15 5 22 16 -2 -1 -4 -1 0 -3 -3
-5 -5 -3 -5 -3 -5 -1 -1 -16 6 -1 -3 7 -5 1 -13 -1 -1 1 -2 -2 0 -0 8 14 10 4 8 5 -22 -13 -14 -9 -3 -14 12 -1 16 4 -3 -2 1 -1 -1 -2
-8 -2 -2 -17 -14 -4 15 -28 9 -0 1 -3 -6 -10 -2 -6 22 7 9 -3 1 -4 -0 -3 9 -3 2 2 14 4 24 -41 12 9 21 -0 4 6 4 4 1 0 1 0 0
1 -5 -9 -6 -13 4 -18 -10 -5 1 -2 3 -1 3 3 -2 2 -10 -7 3 -1 3 1 -0 1 2 -1 3 7 15 33 21 16 5 4 5 1 2 8 3 -1 1 1 2 1
0 -7 -4 -1 -11 -6 -13 -4 -1 -2 -2 -11 -3 5 8 3 6 2 3 9 -7 -1 7 -3 8 -3 2 -10 1 4 5 11 6 -0 -9 -1 8 13 5 -1 0 1 0 2 0
-9 -23 -6 -13 -21 -5 -6 -4 -2 1 3 0 -3 3 -2 3 5 -0 5 -0 -4 -1 9 11 3 1 1 7 4 1 5 1 5 5 10 1 12 0 1 2 2 1 -0 1 3
-6 -4 -2 2 -14 -0 0 -3 -1 -6 -5 -4 -4 -2 3 7 -4 0 1 2 -1 -1 -1 -6 6 7 13 6 -3 -23 3 4 -5 5 5 -4 10 3 2 -0 2 -1 2 1 1
-8 -1 -3 -8 -2 -4 -2 -4 -1 -0 -0 -3 -3 -1 -7 2 -2 -1 -5 -5 1 -1 4 -6 6 -5 3 8 7 -1 -2 -3 1 -5 8 9 9 4 2 1 1 0 0 1 0
-10 -6 -3 -6 -5 -1 1 -1 -1 -3 -2 -0 -1 -2 -2 -4 3 -6 1 3 3 -1 -1 -7 -0 -5 1 3 -3 6 -1 1 -9 10 -7 9 -2 4 3 -1 0 0 -0 0 1
-9 -1 -3 -3 -2 -1 -3 -4 -3 -3 -3 -1 -0 -1 -1 -2 1 -1 4 -5 -0 -3 -1 11 6 -2 2 8 -4 -19 3 -4 -4 0 -5 1 1 3 5 1 1 -0 -1 -2 0
-5 -3 -2 -3 -2 -4 -5 -1 -1 -2 -2 -1 -1 -1 1 2 1 1 0 1 1 -3 -1 -2 3 12 2 -3 7 -13 -10 -3 -2 -4 4 -5 1 -4 4 -1 -0 -2 -2 -1 -1
Height
3102 3099 3097 3094 3092 3090 3088 3086 3084 3083 3081 3080 3079 3078 3078 3078 3077 3076 3077 3081 3078 3078 3078 3080 3081 3083 3084 3085 3087 3090 3092 3090 3093 3096 3098 3095 3099 3102 3104 3108 3108 3112 3113 3115 3117
3098 3095 3092 3089 3087 3085 3083 3081 3079 3077 3076 3074 3073 3072 3072 3071 3070 3070 3075 3074 3074 3074 3074 3076 3078 3079 3080 3081 3081 3083 3084 3086 3091 3093 3093 3092 3095 3096 3100 3102 3105 3108 3109 3113 3115
3094 3091 3088 3085 3082 3080 3077 3075 3073 3071 3069 3068 3067 3066 3066 3064 3063 3065 3066 3067 3068 3069 3070 3071 3072 3073 3075 3076 3076 3076 3076 3083 3085 3085 3086 3089 3091 3093 3096 3098 3102 3105 3106 3109 3112
3090 3087 3083 3080 3078 3075 3072 3069 3067 3064 3062 3060 3059 3058 3059 3058 3059 3055 3056 3058 3060 3062 3063 3064 3065 3066 3068 3066 3070 3071 3073 3078 3080 3079 3082 3085 3087 3089 3092 3097 3097 3099 3103 3106 3109
3086 3082 3078 3075 3072 3068 3065 3062 3059 3056 3054 3052 3050 3049 3049 3049 3050 3050 3051 3051 3053 3054 3055 3057 3057 3061 3061 3063 3065 3063 3069 3071 3072 3075 3078 3079 3082 3084 3087 3091 3093 3096 3099 3103 3106
3082 3077 3073 3069 3065 3061 3058 3054 3051 3048 3045 3042 3040 3039 3038 3039 3039 3039 3042 3043 3045 3047 3049 3049 3051 3055 3055 3057 3057 3060 3063 3066 3066 3068 3071 3074 3077 3077 3084 3087 3088 3091 3095 3098 3102
3075 3071 3066 3061 3057 3053 3050 3046 3042 3039 3035 3033 3030 3027 3022 3034 3028 3029 3031 3032 3034 3037 3040 3045 3046 3046 3047 3051 3051 3055 3057 3058 3059 3062 3064 3068 3068 3067 3081 3080 3084 3086 3090 3093 3096
3070 3065 3060 3055 3050 3046 3041 3037 3032 3029 3026 3023 3020 3016 3004 3023 3017 3018 3018 3021 3023 3026 3029 3034 3036 3039 3040 3043 3043 3046 3050 3048 3052 3056 3057 3063 3058 3069 3074 3075 3078 3081 3083 3086 3090
3064 3058 3052 3045 3039 3035 3029 3024 3019 3016 3012 3012 3009 3006 2998 3001 3004 3004 3004 3006 3012 3014 3019 3022 3025 3027 3034 3033 3038 3034 3032 3039 3049 3047 3051 3053 3057 3065 3064 3068 3072 3074 3077 3079 3082
3056 3050 3043 3035 3028 3023 3020 3013 3008 3004 2998 2998 2996 2997 2994 2987 2991 2991 2990 2993 2998 3002 3008 3010 3014 3016 3018 3017 3000 3023 3029 3035 3039 3041 3044 3046 3048 3054 3057 3060 3064 3067 3070 3073 3075
3046 3040 3034 3026 3017 3010 3006 3004 2999 2992 2989 2987 2985 2983 2981 2978 2978 2980 2983 2985 2988 2991 2990 2996 3003 2989 2984 2998 3012 3021 3023 3025 3032 3035 3035 3036 3043 3047 3048 3053 3057 3060 3061 3061 3067
3036 3030 3024 3016 3007 2997 2990 2986 2983 2982 2977 2976 2974 2973 2970 2966 2971 2974 2975 2978 2979 2978 2988 2991 2976 2974 2998 3005 3008 3012 3015 3017 3029 3027 3026 3033 3034 3041 3045 3046 3047 3050 3053 3057 3061
3026 3019 3010 3001 2994 2988 2980 2976 2972 2970 2972 2968 2966 2964 2965 2963 2963 2962 2964 2968 2971 2974 2974 2972 2961 2985 2989 2994 2998 2998 3003 3012 3018 3019 3022 3030 3029 3032 3037 3038 3036 3042 3045 3047 3051
3015 3006 2998 2991 2986 2978 2974 2969 2965 2963 2966 2968 2965 2963 2962 2959 2961 2957 2956 2959 2960 2960 2968 2968 2964 2976 2978 2981 2989 2989 2998 3010 3014 3014 3016 3023 3018 3023 3026 3026 3028 3031 3034 3037 3040
3008 2999 2992 2982 2978 2973 2970 2965 2962 2962 2963 2968 2966 2963 2962 2960 2957 2953 2951 2951 2951 2955 2961 2951 2959 2965 2968 2970 2983 2978 2998 3001 3007 3009 3015 3015 3019 3019 3015 3018 3018 3020 3024 3026 3030
3002 2994 2987 2982 2976 2970 2966 2963 2962 2964 2966 2970 2968 2964 2962 2959 2956 2952 2948 2946 2944 2944 2946 2947 2955 2952 2959 2966 2974 2984 2988 2994 2999 3004 3004 3001 3008 3009 3012 3016 3011 3011 3015 3018 3022
3000 2992 2985 2979 2974 2969 2966 2964 2965 2968 2974 2972 2968 2966 2963 2958 2956 2952 2948 2944 2943 2940 2940 2942 2945 2948 2947 2956 2965 2970 2977 2983 2987 2985 2980 2991 3000 2999 3000 3001 3003 3005 3008 3012 3015
2999 2992 2987 2982 2976 2971 2969 2970 2972 2978 2977 2974 2970 2967 2963 2960 2956 2953 2949 2947 2944 2941 2939 2937 2941 2937 2940 2944 2950 2954 2958 2959 2962 2969 2973 2983 2985 2993 2993 2993 2997 3000 3003 3005 3008
2998 2996 2991 2984 2979 2975 2976 2974 2982 2982 2980 2975 2971 2967 2964 2962 2959 2953 2951 2950 2948 2944 2944 2940 2937 2934 2933 2935 2940 2944 2945 2955 2959 2960 2965 2975 2986 2991 2990 2989 2992 2995 2998 3000 3002
3001 2997 2991 2987 2983 2983 2977 2981 2985 2983 2981 2978 2973 2970 2966 2963 2960 2957 2954 2953 2951 2948 2945 2943 2938 2934 2933 2932 2932 2932 2943 2948 2952 2950 2952 2967 2976 2983 2989 2985 2986 2991 2994 2996 2998
3002 2998 2994 2991 2988 2985 2983 2987 2987 2985 2983 2981 2977 2973 2970 2966 2963 2960 2959 2956 2953 2950 2947 2944 2941 2938 2933 2937 2932 2927 2926 2934 2940 2943 2937 2960 2979 2980 2980 2979 2983 2987 2990 2992 2994
3004 3000 2998 2993 2991 2989 2989 2989 2989 2988 2985 2983 2980 2976 2973 2969 2965 2962 2961 2958 2956 2952 2947 2945 2942 2941 2941 2942 2939 2937 2934 2934 2935 2932 2938 2945 2976 2976 2978 2980 2981 2984 2986 2987 2989
3006 3003 3001 2997 2994 2995 2994 2992 2991 2988 2985 2983 2981 2978 2975 2971 2969 2965 2962 2960 2957 2952 2951 2948 2945 2943 2944 2945 2941 2939 2936 2933 2935 2935 2942 2946 2974 2974 2975 2977 2979 2981 2982 2984 2986
3009 3008 3004 2999 2998 2996 2994 2993 2991 2989 2988 2985 2984 2980 2975 2973 2971 2968 2964 2960 2958 2955 2953 2951 2951 2949 2951 2958 2956 2954 2941 2937 2936 2937 2948 2959 2967 2971 2972 2975 2977 2978 2979 2981 2983
3012 3010 3006 3003 2999 2998 2996 2995 2992 2990 2989 2987 2986 2982 2977 2975 2972 2969 2965 2961 2959 2957 2956 2955 2957 2955 2957 2958 2954 2952 2951 2948 2940 2949 2952 2969 2967 2969 2969 2972 2974 2975 2977 2978 2980
3015 3013 3009 3005 3002 3000 2997 2995 2993 2992 2991 2989 2986 2984 2980 2977 2974 2971 2968 2964 2962 2959 2958 2959 2961 2961 2961 2961 2958 2957 2961 2958 2962 2965 2963 2969 2966 2967 2968 2969 2971 2972 2973 2975 2977
3018 3014 3011 3009 3005 3002 3000 2998 2996 2993 2993 2991 2988 2986 2983 2980 2976 2973 2970 2968 2966 2963 2960 2960 2962 2962 2962 2963 2964 2966 2973 2973 2977 2976 2970 2967 2969 2967 2967 2968 2968 2969 2971 2973 2974